Voltar ao catálogo

STARLINK-35692

AtivoComunicaçõesVLEO
NORAD 66513·PAYLOAD·🇺🇸 United States

Lançado Nov 15, 2025 de Cape Canaveral Space Force Station

Loading…

Próximas Passagens (próximas 24 horas)

TLE

AtualizadoSource: CelesTrak SupGP

Época: Sep 15, 2026, 02:47 UTC

1 66513C 25263AE  26258.11645833  .00026157  00000+0  94723-3 0  2589
2 66513  43.0037   1.0668 0001764 264.5478 231.8232 15.27571600    11

Acompanhe STARLINK-35692 em tempo real com AllMySat

Download on the App Store